Regional Weather Roundup
Issued by NWS State College, PA

Home | Current Version | Previous Version | Text Only | Print | Product List | Glossary On
Versions: 1 2 3 4 5 6 7 8 9 10 11 12 13 14 15 16 17 18 19 20 21 22 23 24 25 26 27 28 29 30 31 32 33 34 35 36 37 38 39 40 41 42 43 44 45 46 47 48 49 50
513
ASUS41 KCTP 070110
RWRCTP

REGIONAL WEATHER ROUNDUP
NATIONAL WEATHER SERVICE STATE COLLEGE PA
800 PM EST SAT FEB 06 2016

Note: "fair" indicates few or no clouds below 12,000 feet with no
significant weather and/or obstructions to visibility.

* = STATION THAT DOES NOT REPORT PRECIPITATION /E.G. RAIN...SNOW...ETC/
    THUNDER OR FOG.

PAZ002>004-007>009-013>016-020>023-029>032-070200-
WESTERN PENNSYLVANIA

CITY           SKY/WX    TMP DP  RH WIND       PRES   REMARKS
ERIE           CLEAR     29  19  66 S5        30.20S
MEADVILLE      CLEAR     32  15  49 SW5       30.17F
FRANKLIN*      CLEAR     30  14  51 SW5       30.19F
NEW CASTLE     FAIR      33  16  49 SW5       30.21F
BEAVER COUNTY  NOT AVBL
BUTLER*        CLEAR     34  12  40 SW3       30.24S
PITTSBURGH INT CLEAR     36  12  37 SW5       30.21S
PITTSBURGH     CLEAR     37  15  40 W7        30.21S
INDIANA*       CLEAR     28  21  74 CALM      30.23S
LATROBE        CLEAR     32  18  55 SW6       30.23R
WASHINGTON CO* CLEAR     30  16  55 CALM      30.22S
$$

PAZ004>006-010>012-017>019-024>028-033>037-041-042-045-046-049>053-070200-
CENTRAL PENNSYLVANIA

CITY           SKY/WX    TMP DP  RH WIND       PRES   REMARKS
BRADFORD       CLEAR     31  15  52 CALM      30.14S
DUBOIS         CLEAR     31  15  52 SW5       30.16S
CLEARFIELD     CLEAR     33  16  49 SW3       30.19S
JOHNSTOWN      CLEAR     33  13  43 W5        30.16S
ALTOONA        CLEAR     32  18  56 CALM      30.20S
STATE COLLEGE  CLEAR     36  18  48 SW5       30.20S
WILLIAMSPORT   CLOUDY    38  18  44 CALM      30.21R
SELINSGROVE    CLOUDY    33  23  66 CALM      30.25S
FT INDIANTOWN  CLEAR     28  23  80 CALM      30.27S
CAPITAL CITY   PTCLDY    38  17  42 SW6       30.27S
HARRISBURG     PTCLDY    38  20  48 S3        30.27S
YORK           CLEAR     26  19  74 CALM      30.27S
$$

PAZ038>040-043-044-047-048-054-055-060>062-067>071-070200-
EASTERN PENNSYLVANIA

CITY           SKY/WX    TMP DP  RH WIND       PRES   REMARKS
SCRANTON       PTCLDY    33  18  53 S5        30.21S
MOUNT POCONO   CLEAR     29  18  63 SW7       30.19R
ALLENTOWN      CLEAR     28  19  69 SW5       30.27S
QUAKERTOWN*    CLEAR     28  21  74 CALM      30.28S
READING        CLEAR     34  19  54 S5        30.27S
LANCASTER      PTCLDY    33  21  61 CALM      30.28S
COATESVILLE    PTCLDY    32  21  64 CALM      30.29S
POTTSTOWN      CLOUDY    29  20  69 CALM      30.30S
BLUE BELL        N/A     32  25  74 CALM      30.28F
DOYLESTOWN     PTCLDY    32  19  58 CALM      30.28S
WILLOW GROVE   NOT AVBL
NORTH PHILA    PTCLDY    37  23  56 SW5       30.32S
PHILADELPHIA   PTCLDY    37  24  59 S7        30.32R
$$




USA.gov is the U.S. government's official web portal to all federal, state and local government web resources and services.